{"data":{"norad_id":63067,"epoch":"2026-05-25T02:27:27.645120Z","epoch_age_seconds":65940,"freshness":"FRESH","line1":"1 63067U 25035R   26145.10240330  .00015255  00000+0  56250-3 0  9996","line2":"2 63067  42.9994  75.7469 0000793 267.6150  92.4611 15.27593863 71410","mean_motion":15.27593863,"eccentricity":7.93e-5,"inclination_deg":42.9994,"raan_deg":75.7469,"arg_perigee_deg":267.615,"mean_anomaly_deg":92.4611,"bstar":0.0005625,"rev_number":7141,"period_min":94.265893237619,"perigee_km":482.46349677876,"apogee_km":483.55167431003,"semimajor_km":6861.1445855444,"source":"CELESTRAK","updated_at":"2026-05-25T13:38:19.874454Z"}}